Time,TemperatureF,DewpointF,PressureIn,WindDirection,WindDirectionDegrees,WindSpeedMPH,WindSpeedGustMPH,Humidity,HourlyPrecipIn,Conditions,Clouds,dailyrainin,SoftwareType,DateUTC
2013-09-26 00:00:00,53.6,37.8,29.75,NW,312,8.0,14.0,55,0.00,,---,0.00,VWS V14.01,2013-09-26 07:00:00,
2013-09-26 00:01:00,53.6,37.8,29.75,WNW,288,8.0,15.0,55,0.00,,---,0.00,VWS V14.01,2013-09-26 07:01:00,
2013-09-26 00:06:00,53.4,37.7,29.75,WSW,257,8.0,15.0,55,0.00,,---,0.00,VWS V14.01,2013-09-26 07:06:00,
2013-09-26 00:11:00,53.2,37.5,29.75,WSW,249,4.0,15.0,55,0.00,,---,0.00,VWS V14.01,2013-09-26 07:11:00,
2013-09-26 00:16:00,53.0,37.3,29.75,WNW,302,5.0,15.0,55,0.00,,---,0.00,VWS V14.01,2013-09-26 07:16:00,
2013-09-26 00:21:00,53.1,37.4,29.75,West,281,4.0,15.0,55,0.00,,---,0.00,VWS V14.01,2013-09-26 07:21:00,
2013-09-26 00:26:00,52.8,37.5,29.75,WSW,238,6.0,15.0,56,0.00,,---,0.00,VWS V14.01,2013-09-26 07:26:00,
2013-09-26 00:30:00,52.7,37.5,29.75,WNW,299,5.0,15.0,56,0.00,,---,0.00,VWS V14.01,2013-09-26 07:30:00,
2013-09-26 00:31:00,52.6,37.4,29.75,WSW,247,4.0,10.0,56,0.00,,---,0.00,VWS V14.01,2013-09-26 07:31:00,
2013-09-26 00:36:00,52.4,37.6,29.75,SW,228,4.0,11.0,57,0.00,,---,0.00,VWS V14.01,2013-09-26 07:36:00,
2013-09-26 00:41:00,52.4,37.6,29.75,WNW,293,6.0,13.0,57,0.00,,---,0.00,VWS V14.01,2013-09-26 07:41:00,
2013-09-26 00:46:00,52.5,37.7,29.76,NW,311,5.0,13.0,57,0.00,,---,0.00,VWS V14.01,2013-09-26 07:46:00,
2013-09-26 00:51:00,52.5,37.7,29.76,SW,231,3.0,13.0,57,0.00,,---,0.00,VWS V14.01,2013-09-26 07:51:00,
2013-09-26 00:56:00,52.5,37.7,29.76,SW,235,3.0,13.0,57,0.00,,---,0.00,VWS V14.01,2013-09-26 07:56:00,
2013-09-26 01:00:00,52.4,37.6,29.75,West,263,8.0,13.0,57,0.00,,---,0.00,VWS V14.01,2013-09-26 08:00:00,
2013-09-26 01:01:00,52.3,37.5,29.75,WNW,291,5.0,16.0,57,0.00,,---,0.00,VWS V14.01,2013-09-26 08:01:00,
2013-09-26 01:06:00,52.3,37.5,29.75,NW,319,4.0,16.0,57,0.00,,---,0.00,VWS V14.01,2013-09-26 08:06:00,
2013-09-26 01:11:00,52.2,37.4,29.76,West,264,5.0,16.0,57,0.00,,---,0.00,VWS V14.01,2013-09-26 08:11:00,
2013-09-26 01:16:00,52.2,37.4,29.76,WSW,240,8.0,16.0,57,0.00,,---,0.00,VWS V14.01,2013-09-26 08:16:00,
2013-09-26 01:21:00,52.1,37.3,29.76,WNW,283,8.0,16.0,57,0.00,,---,0.00,VWS V14.01,2013-09-26 08:21:00,
2013-09-26 01:26:00,52.0,37.2,29.76,West,259,6.0,16.0,57,0.00,,---,0.00,VWS V14.01,2013-09-26 08:26:00,
2013-09-26 01:30:00,52.0,37.7,29.76,NW,326,5.0,16.0,58,0.00,,---,0.00,VWS V14.01,2013-09-26 08:30:00,
2013-09-26 01:31:00,51.9,37.6,29.76,WNW,302,7.0,12.0,58,0.00,,---,0.00,VWS V14.01,2013-09-26 08:31:00,
2013-09-26 01:36:00,51.6,37.3,29.76,WNW,283,7.0,14.0,58,0.00,,---,0.00,VWS V14.01,2013-09-26 08:36:00,
2013-09-26 01:41:00,51.4,37.6,29.76,SSW,204,4.0,14.0,59,0.00,,---,0.00,VWS V14.01,2013-09-26 08:41:00,
2013-09-26 01:46:00,51.3,37.9,29.76,WNW,295,5.0,14.0,60,0.00,,---,0.00,VWS V14.01,2013-09-26 08:46:00,
2013-09-26 01:51:00,51.2,37.8,29.77,WNW,296,8.0,14.0,60,0.00,,---,0.00,VWS V14.01,2013-09-26 08:51:00,
2013-09-26 01:56:00,51.2,37.8,29.77,WNW,301,6.0,15.0,60,0.00,,---,0.00,VWS V14.01,2013-09-26 08:56:00,
2013-09-26 02:00:00,51.2,37.8,29.77,WNW,300,9.0,15.0,60,0.00,,---,0.00,VWS V14.01,2013-09-26 09:00:00,
2013-09-26 02:01:00,51.0,38.0,29.77,NW,315,8.0,12.0,61,0.00,,---,0.00,VWS V14.01,2013-09-26 09:01:00,
2013-09-26 02:06:00,50.9,38.0,29.77,West,271,6.0,12.0,61,0.00,,---,0.00,VWS V14.01,2013-09-26 09:06:00,
2013-09-26 02:11:00,50.8,37.8,29.76,West,273,6.0,12.0,61,0.00,,---,0.00,VWS V14.01,2013-09-26 09:11:00,
2013-09-26 02:16:00,50.7,38.2,29.77,West,280,9.0,13.0,62,0.00,,---,0.00,VWS V14.01,2013-09-26 09:16:00,
2013-09-26 02:21:00,50.6,38.1,29.76,WNW,285,6.0,13.0,62,0.00,,---,0.00,VWS V14.01,2013-09-26 09:21:00,
2013-09-26 02:26:00,50.5,38.0,29.77,WNW,295,6.0,13.0,62,0.00,,---,0.00,VWS V14.01,2013-09-26 09:26:00,
2013-09-26 02:30:00,50.4,38.3,29.76,WNW,302,7.0,13.0,63,0.00,,---,0.00,VWS V14.01,2013-09-26 09:30:00,
2013-09-26 02:31:00,50.4,38.3,29.77,WNW,294,4.0,13.0,63,0.00,,---,0.00,VWS V14.01,2013-09-26 09:31:00,
2013-09-26 02:36:00,50.3,38.6,29.77,West,273,7.0,13.0,64,0.00,,---,0.00,VWS V14.01,2013-09-26 09:36:00,
2013-09-26 02:41:00,50.3,38.6,29.77,WNW,283,5.0,13.0,64,0.00,,---,0.00,VWS V14.01,2013-09-26 09:41:00,
2013-09-26 02:46:00,50.1,38.8,29.77,WSW,257,10.0,13.0,65,0.00,,---,0.00,VWS V14.01,2013-09-26 09:46:00,
2013-09-26 02:51:00,50.0,38.7,29.76,West,271,9.0,13.0,65,0.00,,---,0.00,VWS V14.01,2013-09-26 09:51:00,
2013-09-26 02:56:00,50.0,38.7,29.77,NW,323,7.0,13.0,65,0.00,,---,0.00,VWS V14.01,2013-09-26 09:56:00,
2013-09-26 03:00:00,49.9,38.6,29.77,NW,305,5.0,13.0,65,0.00,,---,0.00,VWS V14.01,2013-09-26 10:00:00,
2013-09-26 03:01:00,49.9,39.0,29.76,WSW,246,5.0,10.0,66,0.00,,---,0.00,VWS V14.01,2013-09-26 10:01:00,
2013-09-26 03:06:00,49.8,38.9,29.76,NW,305,5.0,12.0,66,0.00,,---,0.00,VWS V14.01,2013-09-26 10:06:00,
2013-09-26 03:11:00,49.9,39.0,29.76,West,270,6.0,13.0,66,0.00,,---,0.00,VWS V14.01,2013-09-26 10:11:00,
2013-09-26 03:16:00,49.9,39.0,29.77,SW,221,5.0,13.0,66,0.00,,---,0.00,VWS V14.01,2013-09-26 10:16:00,
2013-09-26 03:21:00,49.8,38.9,29.76,West,263,7.0,13.0,66,0.00,,---,0.00,VWS V14.01,2013-09-26 10:21:00,
2013-09-26 03:26:00,49.8,38.9,29.76,SW,231,9.0,13.0,66,0.00,,---,0.00,VWS V14.01,2013-09-26 10:26:00,
2013-09-26 03:30:00,49.8,38.9,29.76,West,269,3.0,13.0,66,0.00,,---,0.00,VWS V14.01,2013-09-26 10:30:00,
2013-09-26 03:31:00,49.8,38.9,29.77,West,280,5.0,12.0,66,0.00,,---,0.00,VWS V14.01,2013-09-26 10:31:00,
2013-09-26 03:36:00,49.9,39.0,29.77,WNW,293,3.0,13.0,66,0.00,,---,0.00,VWS V14.01,2013-09-26 10:36:00,
2013-09-26 03:41:00,50.0,39.1,29.77,NW,305,6.0,13.0,66,0.00,,---,0.00,VWS V14.01,2013-09-26 10:41:00,
2013-09-26 03:46:00,50.1,39.2,29.77,WNW,288,4.0,14.0,66,0.00,,---,0.00,VWS V14.01,2013-09-26 10:46:00,
2013-09-26 03:51:00,50.1,38.8,29.77,West,281,4.0,14.0,65,0.00,,---,0.00,VWS V14.01,2013-09-26 10:51:00,
2013-09-26 03:56:00,50.0,39.1,29.77,West,276,7.0,14.0,66,0.00,,---,0.00,VWS V14.01,2013-09-26 10:56:00,
2013-09-26 04:00:00,49.9,39.0,29.77,WNW,285,4.0,14.0,66,0.00,,---,0.00,VWS V14.01,2013-09-26 11:00:00,
2013-09-26 04:01:00,49.9,39.0,29.77,West,275,10.0,10.0,66,0.00,,---,0.00,VWS V14.01,2013-09-26 11:01:00,
2013-09-26 04:06:00,49.8,39.3,29.77,WNW,288,3.0,11.0,67,0.00,,---,0.00,VWS V14.01,2013-09-26 11:06:00,
2013-09-26 04:11:00,49.7,38.8,29.77,NW,307,3.0,11.0,66,0.00,,---,0.00,VWS V14.01,2013-09-26 11:11:00,
2013-09-26 04:16:00,49.4,38.9,29.77,WNW,302,5.0,11.0,67,0.00,,---,0.00,VWS V14.01,2013-09-26 11:16:00,
2013-09-26 04:21:00,49.4,38.9,29.77,WNW,291,7.0,11.0,67,0.00,,---,0.00,VWS V14.01,2013-09-26 11:21:00,
2013-09-26 04:26:00,49.3,38.8,29.77,WNW,285,5.0,11.0,67,0.00,,---,0.00,VWS V14.01,2013-09-26 11:26:00,
2013-09-26 04:30:00,49.3,38.8,29.77,South,190,5.0,11.0,67,0.00,,---,0.00,VWS V14.01,2013-09-26 11:30:00,
2013-09-26 04:31:00,49.3,38.8,29.77,WNW,288,6.0,13.0,67,0.00,,---,0.00,VWS V14.01,2013-09-26 11:31:00,
2013-09-26 04:36:00,49.1,38.6,29.77,NW,304,4.0,13.0,67,0.00,,---,0.00,VWS V14.01,2013-09-26 11:36:00,
2013-09-26 04:41:00,49.0,38.9,29.77,West,269,4.0,13.0,68,0.00,,---,0.00,VWS V14.01,2013-09-26 11:41:00,
2013-09-26 04:46:00,48.9,38.8,29.77,WNW,288,4.0,13.0,68,0.00,,---,0.00,VWS V14.01,2013-09-26 11:46:00,
2013-09-26 04:51:00,48.9,38.8,29.77,WSW,257,3.0,13.0,68,0.00,,---,0.00,VWS V14.01,2013-09-26 11:51:00,
2013-09-26 04:56:00,48.9,38.8,29.77,WNW,293,6.0,13.0,68,0.00,,---,0.00,VWS V14.01,2013-09-26 11:56:00,
2013-09-26 05:00:00,48.9,38.8,29.77,WNW,283,3.0,13.0,68,0.00,,---,0.00,VWS V14.01,2013-09-26 12:00:00,
2013-09-26 05:01:00,48.9,38.8,29.77,West,278,4.0,8.0,68,0.00,,---,0.00,VWS V14.01,2013-09-26 12:01:00,
2013-09-26 05:06:00,48.8,38.7,29.77,West,276,4.0,8.0,68,0.00,,---,0.00,VWS V14.01,2013-09-26 12:06:00,
2013-09-26 05:11:00,48.8,38.7,29.77,NW,314,5.0,9.0,68,0.00,,---,0.00,VWS V14.01,2013-09-26 12:11:00,
2013-09-26 05:16:00,48.8,38.7,29.77,WNW,302,5.0,10.0,68,0.00,,---,0.00,VWS V14.01,2013-09-26 12:16:00,
2013-09-26 05:21:00,48.7,38.6,29.77,West,277,2.0,10.0,68,0.00,,---,0.00,VWS V14.01,2013-09-26 12:21:00,
2013-09-26 05:26:00,48.7,38.6,29.78,West,278,3.0,10.0,68,0.00,,---,0.00,VWS V14.01,2013-09-26 12:26:00,
2013-09-26 05:30:00,48.7,38.6,29.78,WSW,246,3.0,10.0,68,0.00,,---,0.00,VWS V14.01,2013-09-26 12:30:00,
2013-09-26 05:31:00,48.7,38.6,29.78,WNW,296,3.0,9.0,68,0.00,,---,0.00,VWS V14.01,2013-09-26 12:31:00,
2013-09-26 05:36:00,48.6,38.5,29.78,WNW,291,4.0,11.0,68,0.00,,---,0.00,VWS V14.01,2013-09-26 12:36:00,
2013-09-26 05:41:00,48.5,38.4,29.78,NW,312,2.0,11.0,68,0.00,,---,0.00,VWS V14.01,2013-09-26 12:41:00,
2013-09-26 05:46:00,48.3,38.2,29.78,NW,307,3.0,11.0,68,0.00,,---,0.00,VWS V14.01,2013-09-26 12:46:00,
2013-09-26 05:51:00,48.3,38.6,29.78,NW,308,6.0,11.0,69,0.00,,---,0.00,VWS V14.01,2013-09-26 12:51:00,
2013-09-26 05:56:00,48.5,38.4,29.78,West,280,2.0,12.0,68,0.00,,---,0.00,VWS V14.01,2013-09-26 12:56:00,
2013-09-26 06:00:00,48.4,38.3,29.78,West,276,5.0,12.0,68,0.00,,---,0.00,VWS V14.01,2013-09-26 13:00:00,
2013-09-26 06:01:00,48.5,38.8,29.78,WNW,283,4.0,8.0,69,0.00,,---,0.00,VWS V14.01,2013-09-26 13:01:00,
2013-09-26 06:06:00,48.7,38.6,29.78,SW,227,2.0,11.0,68,0.00,,---,0.00,VWS V14.01,2013-09-26 13:06:00,
2013-09-26 06:11:00,48.7,39.0,29.78,West,277,12.0,12.0,69,0.00,,---,0.00,VWS V14.01,2013-09-26 13:11:00,
2013-09-26 06:16:00,48.8,39.1,29.78,West,280,4.0,12.0,69,0.00,,---,0.00,VWS V14.01,2013-09-26 13:16:00,
2013-09-26 06:21:00,48.7,39.0,29.78,NW,322,4.0,12.0,69,0.00,,---,0.00,VWS V14.01,2013-09-26 13:21:00,
2013-09-26 06:26:00,48.6,38.9,29.79,West,260,3.0,12.0,69,0.00,,---,0.00,VWS V14.01,2013-09-26 13:26:00,
2013-09-26 06:30:00,48.6,38.9,29.79,NW,314,4.0,12.0,69,0.00,,---,0.00,VWS V14.01,2013-09-26 13:30:00,
2013-09-26 06:31:00,48.5,38.8,29.79,WSW,256,4.0,8.0,69,0.00,,---,0.00,VWS V14.01,2013-09-26 13:31:00,
2013-09-26 06:36:00,48.6,38.9,29.79,WSW,249,4.0,8.0,69,0.00,,---,0.00,VWS V14.01,2013-09-26 13:36:00,
2013-09-26 06:41:00,48.5,38.8,29.79,West,273,3.0,10.0,69,0.00,,---,0.00,VWS V14.01,2013-09-26 13:41:00,
2013-09-26 06:46:00,48.5,38.8,29.79,West,278,6.0,10.0,69,0.00,,---,0.00,VWS V14.01,2013-09-26 13:46:00,
2013-09-26 06:51:00,48.6,38.5,29.80,NW,316,9.0,11.0,68,0.00,,---,0.00,VWS V14.01,2013-09-26 13:51:00,
2013-09-26 06:56:00,48.7,38.6,29.80,WSW,252,3.0,11.0,68,0.00,,---,0.00,VWS V14.01,2013-09-26 13:56:00,
2013-09-26 07:00:00,48.7,38.6,29.80,NNW,336,8.0,11.0,68,0.00,,---,0.00,VWS V14.01,2013-09-26 14:00:00,
2013-09-26 07:01:00,48.8,38.7,29.80,West,273,5.0,12.0,68,0.00,,---,0.00,VWS V14.01,2013-09-26 14:01:00,
2013-09-26 07:06:00,48.8,38.7,29.80,West,264,3.0,12.0,68,0.00,,---,0.00,VWS V14.01,2013-09-26 14:06:00,
2013-09-26 07:11:00,48.8,38.7,29.80,WNW,285,4.0,12.0,68,0.00,,---,0.00,VWS V14.01,2013-09-26 14:11:00,
2013-09-26 07:16:00,49.1,38.6,29.81,WNW,295,3.0,12.0,67,0.00,,---,0.00,VWS V14.01,2013-09-26 14:16:00,
2013-09-26 07:21:00,49.3,38.4,29.81,WNW,297,8.0,14.0,66,0.00,,---,0.00,VWS V14.01,2013-09-26 14:21:00,
2013-09-26 07:26:00,49.5,38.6,29.81,West,267,5.0,14.0,66,0.00,,---,0.00,VWS V14.01,2013-09-26 14:26:00,
2013-09-26 07:30:00,49.5,38.6,29.81,West,277,5.0,14.0,66,0.00,,---,0.00,VWS V14.01,2013-09-26 14:30:00,
2013-09-26 07:31:00,49.6,38.3,29.81,West,271,7.0,8.0,65,0.00,,---,0.00,VWS V14.01,2013-09-26 14:31:00,
2013-09-26 07:36:00,49.7,38.4,29.82,WNW,285,5.0,13.0,65,0.00,,---,0.00,VWS V14.01,2013-09-26 14:36:00,
2013-09-26 07:41:00,49.7,38.4,29.82,WNW,285,6.0,13.0,65,0.00,,---,0.00,VWS V14.01,2013-09-26 14:41:00,
2013-09-26 07:46:00,49.4,38.1,29.82,West,281,3.0,14.0,65,0.00,,---,0.00,VWS V14.01,2013-09-26 14:46:00,
2013-09-26 07:51:00,49.7,38.4,29.82,West,268,5.0,14.0,65,0.00,,---,0.00,VWS V14.01,2013-09-26 14:51:00,
2013-09-26 07:56:00,49.6,38.3,29.82,WNW,285,9.0,14.0,65,0.00,,---,0.00,VWS V14.01,2013-09-26 14:56:00,
2013-09-26 08:00:00,49.7,38.4,29.82,NW,308,8.0,14.0,65,0.00,,---,0.00,VWS V14.01,2013-09-26 15:00:00,
2013-09-26 08:01:00,50.0,38.7,29.83,NW,308,11.0,13.0,65,0.00,,---,0.00,VWS V14.01,2013-09-26 15:01:00,
2013-09-26 08:06:00,50.3,39.0,29.83,WNW,283,9.0,13.0,65,0.00,,---,0.00,VWS V14.01,2013-09-26 15:06:00,
2013-09-26 08:11:00,50.5,38.8,29.83,WNW,302,5.0,16.0,64,0.00,,---,0.00,VWS V14.01,2013-09-26 15:11:00,
2013-09-26 08:16:00,50.6,38.9,29.83,NNW,336,12.0,16.0,64,0.00,,---,0.00,VWS V14.01,2013-09-26 15:16:00,
2013-09-26 08:21:00,50.5,38.8,29.84,NW,316,6.0,16.0,64,0.00,,---,0.00,VWS V14.01,2013-09-26 15:21:00,
2013-09-26 08:26:00,50.7,39.4,29.84,SW,228,9.0,16.0,65,0.00,,---,0.00,VWS V14.01,2013-09-26 15:26:00,
2013-09-26 08:30:00,50.8,39.1,29.84,WNW,300,10.0,16.0,64,0.00,,---,0.00,VWS V14.01,2013-09-26 15:30:00,
2013-09-26 08:31:00,50.7,39.0,29.84,West,277,8.0,18.0,64,0.00,,---,0.00,VWS V14.01,2013-09-26 15:31:00,
2013-09-26 08:36:00,50.7,39.0,29.84,WNW,302,8.0,18.0,64,0.00,,---,0.00,VWS V14.01,2013-09-26 15:36:00,
2013-09-26 08:41:00,50.6,38.9,29.84,WNW,290,15.0,18.0,64,0.00,,---,0.00,VWS V14.01,2013-09-26 15:41:00,
2013-09-26 08:46:00,50.6,39.3,29.84,WNW,300,13.0,18.0,65,0.00,,---,0.00,VWS V14.01,2013-09-26 15:46:00,
2013-09-26 08:51:00,50.8,39.5,29.84,WNW,289,8.0,18.0,65,0.00,,---,0.00,VWS V14.01,2013-09-26 15:51:00,
2013-09-26 08:56:00,50.7,39.4,29.84,WNW,293,9.0,18.0,65,0.00,,---,0.00,VWS V14.01,2013-09-26 15:56:00,
2013-09-26 09:00:00,50.7,39.0,29.84,WNW,285,6.0,18.0,64,0.00,,---,0.00,VWS V14.01,2013-09-26 16:00:00,
2013-09-26 09:01:00,50.9,39.2,29.84,West,278,8.0,14.0,64,0.00,,---,0.00,VWS V14.01,2013-09-26 16:01:00,
2013-09-26 09:06:00,51.1,39.4,29.84,WSW,252,10.0,18.0,64,0.00,,---,0.00,VWS V14.01,2013-09-26 16:06:00,
2013-09-26 09:11:00,51.0,39.3,29.84,West,277,6.0,18.0,64,0.00,,---,0.00,VWS V14.01,2013-09-26 16:11:00,
2013-09-26 09:16:00,51.4,39.2,29.84,WNW,300,9.0,18.0,63,0.00,,---,0.00,VWS V14.01,2013-09-26 16:16:00,
2013-09-26 09:21:00,51.6,39.4,29.84,SW,228,14.0,18.0,63,0.00,,---,0.00,VWS V14.01,2013-09-26 16:21:00,
2013-09-26 09:26:00,51.6,39.4,29.84,West,274,9.0,19.0,63,0.00,,---,0.00,VWS V14.01,2013-09-26 16:26:00,
2013-09-26 09:30:00,51.6,39.0,29.84,SW,224,5.0,19.0,62,0.00,,---,0.00,VWS V14.01,2013-09-26 16:30:00,
2013-09-26 09:31:00,51.7,39.1,29.84,WNW,283,6.0,15.0,62,0.00,,---,0.00,VWS V14.01,2013-09-26 16:31:00,
2013-09-26 09:36:00,52.0,39.0,29.85,West,280,13.0,18.0,61,0.00,,---,0.00,VWS V14.01,2013-09-26 16:36:00,
2013-09-26 09:41:00,52.2,38.8,29.84,WNW,286,14.0,19.0,60,0.00,,---,0.00,VWS V14.01,2013-09-26 16:41:00,
2013-09-26 09:45:00,52.1,38.7,29.84,WNW,300,10.0,20.0,60,0.00,,---,0.00,VWS V14.01,2013-09-26 16:45:00,
2013-09-26 09:50:00,52.5,38.6,29.85,NNW,345,13.0,20.0,59,0.00,,---,0.00,VWS V14.01,2013-09-26 16:50:00,
2013-09-26 09:55:00,52.3,38.4,29.84,West,269,19.0,21.0,59,0.00,,---,0.00,VWS V14.01,2013-09-26 16:55:00,
2013-09-26 10:00:00,52.5,38.2,29.84,West,270,11.0,18.0,58,0.00,,---,0.00,VWS V14.01,2013-09-26 17:00:00,
2013-09-26 10:05:00,52.9,38.1,29.84,West,266,13.0,20.0,57,0.00,,---,0.00,VWS V14.01,2013-09-26 17:05:00,
2013-09-26 10:10:00,52.7,37.9,29.85,NW,305,12.0,21.0,57,0.00,,---,0.00,VWS V14.01,2013-09-26 17:10:00,
2013-09-26 10:15:00,52.9,37.7,29.85,NW,315,14.0,21.0,56,0.00,,---,0.00,VWS V14.01,2013-09-26 17:15:00,
2013-09-26 10:20:00,53.2,37.5,29.85,NW,308,9.0,21.0,55,0.00,,---,0.00,VWS V14.01,2013-09-26 17:20:00,
2013-09-26 10:25:00,53.6,37.4,29.85,West,269,15.0,21.0,54,0.00,,---,0.00,VWS V14.01,2013-09-26 17:25:00,
2013-09-26 10:30:00,53.8,37.6,29.84,NW,308,9.0,18.0,54,0.00,,---,0.00,VWS V14.01,2013-09-26 17:30:00,
2013-09-26 10:35:00,54.1,37.8,29.84,WSW,254,9.0,18.0,54,0.00,,---,0.00,VWS V14.01,2013-09-26 17:35:00,
2013-09-26 10:40:00,54.2,37.5,29.84,NW,312,14.0,19.0,53,0.00,,---,0.00,VWS V14.01,2013-09-26 17:40:00,
2013-09-26 10:45:00,54.5,37.2,29.84,West,269,12.0,21.0,52,0.00,,---,0.00,VWS V14.01,2013-09-26 17:45:00,
2013-09-26 10:50:00,54.4,37.2,29.84,West,269,13.0,23.0,52,0.00,,---,0.00,VWS V14.01,2013-09-26 17:50:00,
2013-09-26 10:55:00,54.6,37.3,29.84,West,262,12.0,23.0,52,0.00,,---,0.00,VWS V14.01,2013-09-26 17:55:00,
2013-09-26 11:00:00,55.2,37.4,29.84,WNW,302,9.0,18.0,51,0.00,,---,0.00,VWS V14.01,2013-09-26 18:00:00,
2013-09-26 11:05:00,55.4,37.1,29.85,NW,312,17.0,21.0,50,0.00,,---,0.00,VWS V14.01,2013-09-26 18:05:00,
2013-09-26 11:10:00,55.5,37.2,29.85,West,281,13.0,22.0,50,0.00,,---,0.00,VWS V14.01,2013-09-26 18:10:00,
2013-09-26 11:15:00,55.5,37.7,29.85,West,280,5.0,22.0,51,0.00,,---,0.00,VWS V14.01,2013-09-26 18:15:00,
2013-09-26 11:20:00,55.7,37.9,29.85,West,270,12.0,22.0,51,0.00,,---,0.00,VWS V14.01,2013-09-26 18:20:00,
2013-09-26 11:25:00,56.1,38.2,29.85,SW,228,9.0,22.0,51,0.00,,---,0.00,VWS V14.01,2013-09-26 18:25:00,
2013-09-26 11:30:00,56.6,37.7,29.86,West,276,7.0,16.0,49,0.00,,---,0.00,VWS V14.01,2013-09-26 18:30:00,
2013-09-26 11:35:00,56.6,37.7,29.85,West,276,14.0,19.0,49,0.00,,---,0.00,VWS V14.01,2013-09-26 18:35:00,
2013-09-26 11:40:00,56.9,37.4,29.84,WNW,298,15.0,19.0,48,0.00,,---,0.00,VWS V14.01,2013-09-26 18:40:00,
2013-09-26 11:45:00,56.9,36.9,29.84,WSW,249,18.0,19.0,47,0.00,,---,0.00,VWS V14.01,2013-09-26 18:45:00,
2013-09-26 11:50:00,57.2,36.6,29.84,WSW,257,9.0,19.0,46,0.00,,---,0.00,VWS V14.01,2013-09-26 18:50:00,
2013-09-26 11:56:00,57.4,36.2,29.84,West,274,15.0,19.0,45,0.00,,---,0.00,VWS V14.01,2013-09-26 18:56:00,
2013-09-26 12:00:00,57.4,36.2,29.84,West,279,12.0,19.0,45,0.00,,---,0.00,VWS V14.01,2013-09-26 19:00:00,
2013-09-26 12:01:00,58.0,36.2,29.84,WNW,285,13.0,22.0,44,0.00,,---,0.00,VWS V14.01,2013-09-26 19:01:00,
2013-09-26 12:06:00,58.6,36.2,29.84,West,266,14.0,22.0,43,0.00,,---,0.00,VWS V14.01,2013-09-26 19:06:00,
2013-09-26 12:11:00,59.2,34.9,29.85,SE,136,5.0,22.0,40,0.00,,---,0.00,VWS V14.01,2013-09-26 19:11:00,
2013-09-26 12:16:00,60.1,29.4,29.84,ESE,120,0.0,22.0,31,0.00,,---,0.00,VWS V14.01,2013-09-26 19:16:00,
2013-09-26 12:21:00,61.4,32.1,29.85,NW,305,12.0,22.0,33,0.00,,---,0.00,VWS V14.01,2013-09-26 19:21:00,
2013-09-26 12:26:00,62.3,31.3,29.84,WNW,295,10.0,22.0,31,0.00,,---,0.00,VWS V14.01,2013-09-26 19:26:00,
2013-09-26 12:30:00,62.6,31.6,29.84,WNW,293,10.0,22.0,31,0.00,,---,0.00,VWS V14.01,2013-09-26 19:30:00,
2013-09-26 12:31:00,62.4,31.4,29.85,WNW,283,12.0,15.0,31,0.00,,---,0.00,VWS V14.01,2013-09-26 19:31:00,
2013-09-26 12:36:00,61.9,31.0,29.85,NW,308,16.0,21.0,31,0.00,,---,0.00,VWS V14.01,2013-09-26 19:36:00,
2013-09-26 12:41:00,62.5,30.7,29.84,NNW,340,10.0,21.0,30,0.00,,---,0.00,VWS V14.01,2013-09-26 19:41:00,
2013-09-26 12:46:00,62.9,31.8,29.84,NNW,345,15.0,22.0,31,0.00,,---,0.00,VWS V14.01,2013-09-26 19:46:00,
2013-09-26 12:51:00,62.1,31.9,29.85,NW,316,15.0,22.0,32,0.00,,---,0.00,VWS V14.01,2013-09-26 19:51:00,
2013-09-26 12:56:00,61.4,31.3,29.83,NNW,335,14.0,26.0,32,0.00,,---,0.00,VWS V14.01,2013-09-26 19:56:00,
2013-09-26 13:00:00,61.2,31.1,29.83,WNW,302,16.0,26.0,32,0.00,,---,0.00,VWS V14.01,2013-09-26 20:00:00,
2013-09-26 13:01:00,61.3,31.2,29.83,WNW,302,12.0,24.0,32,0.00,,---,0.00,VWS V14.01,2013-09-26 20:01:00,
2013-09-26 13:06:00,61.1,31.8,29.83,NW,312,14.0,29.0,33,0.00,,---,0.00,VWS V14.01,2013-09-26 20:06:00,
2013-09-26 13:11:00,61.4,34.2,29.83,West,277,20.0,29.0,36,0.00,,---,0.00,VWS V14.01,2013-09-26 20:11:00,
2013-09-26 13:16:00,61.1,32.5,29.83,NW,319,21.0,29.0,34,0.00,,---,0.00,VWS V14.01,2013-09-26 20:16:00,
2013-09-26 13:21:00,61.3,32.0,29.82,WNW,297,17.0,29.0,33,0.00,,---,0.00,VWS V14.01,2013-09-26 20:21:00,
2013-09-26 13:26:00,61.4,32.1,29.83,NNW,333,20.0,29.0,33,0.00,,---,0.00,VWS V14.01,2013-09-26 20:26:00,
2013-09-26 13:30:00,61.5,30.6,29.84,NW,322,9.0,29.0,31,0.00,,---,0.00,VWS V14.01,2013-09-26 20:30:00,
2013-09-26 13:31:00,62.3,32.1,29.84,WNW,287,22.0,23.0,32,0.00,,---,0.00,VWS V14.01,2013-09-26 20:31:00,
2013-09-26 13:36:00,62.0,31.0,29.84,WNW,290,21.0,28.0,31,0.00,,---,0.00,VWS V14.01,2013-09-26 20:36:00,
2013-09-26 13:41:00,61.7,30.8,29.83,WNW,286,10.0,28.0,31,0.00,,---,0.00,VWS V14.01,2013-09-26 20:41:00,
2013-09-26 13:46:00,62.0,31.0,29.83,NW,316,13.0,28.0,31,0.00,,---,0.00,VWS V14.01,2013-09-26 20:46:00,
2013-09-26 13:51:00,62.0,31.8,29.84,WNW,297,17.0,28.0,32,0.00,,---,0.00,VWS V14.01,2013-09-26 20:51:00,
2013-09-26 13:56:00,61.8,30.9,29.84,NW,311,11.0,28.0,31,0.00,,---,0.00,VWS V14.01,2013-09-26 20:56:00,
2013-09-26 14:00:00,62.1,31.1,29.84,NW,304,15.0,28.0,31,0.00,,---,0.00,VWS V14.01,2013-09-26 21:00:00,
2013-09-26 14:01:00,61.9,31.7,29.85,NW,305,16.0,25.0,32,0.00,,---,0.00,VWS V14.01,2013-09-26 21:01:00,
2013-09-26 14:06:00,61.4,31.3,29.84,NW,308,18.0,28.0,32,0.00,,---,0.00,VWS V14.01,2013-09-26 21:06:00,
2013-09-26 14:11:00,61.0,31.7,29.85,NNW,335,13.0,28.0,33,0.00,,---,0.00,VWS V14.01,2013-09-26 21:11:00,
2013-09-26 14:16:00,60.9,31.6,29.85,NW,316,16.0,28.0,33,0.00,,---,0.00,VWS V14.01,2013-09-26 21:16:00,
2013-09-26 14:21:00,61.1,33.3,29.86,NNW,328,12.0,28.0,35,0.00,,---,0.00,VWS V14.01,2013-09-26 21:21:00,
2013-09-26 14:26:00,61.6,33.0,29.85,WNW,303,9.0,28.0,34,0.00,,---,0.00,VWS V14.01,2013-09-26 21:26:00,
2013-09-26 14:30:00,61.4,32.1,29.85,WNW,300,11.0,28.0,33,0.00,,---,0.00,VWS V14.01,2013-09-26 21:30:00,
2013-09-26 14:31:00,61.3,32.7,29.86,WNW,299,12.0,21.0,34,0.00,,---,0.00,VWS V14.01,2013-09-26 21:31:00,
2013-09-26 14:36:00,60.9,33.1,29.86,NW,323,17.0,21.0,35,0.00,,---,0.00,VWS V14.01,2013-09-26 21:36:00,
2013-09-26 14:41:00,60.6,32.8,29.86,WNW,297,14.0,24.0,35,0.00,,---,0.00,VWS V14.01,2013-09-26 21:41:00,
2013-09-26 14:46:00,60.5,32.7,29.86,WNW,294,16.0,24.0,35,0.00,,---,0.00,VWS V14.01,2013-09-26 21:46:00,
2013-09-26 14:51:00,60.5,33.4,29.86,NW,316,8.0,24.0,36,0.00,,---,0.00,VWS V14.01,2013-09-26 21:51:00,
2013-09-26 14:56:00,60.9,33.1,29.86,WNW,296,11.0,24.0,35,0.00,,---,0.00,VWS V14.01,2013-09-26 21:56:00,
2013-09-26 15:00:00,61.0,33.9,29.86,NW,308,17.0,24.0,36,0.00,,---,0.00,VWS V14.01,2013-09-26 22:00:00,
2013-09-26 15:01:00,60.8,33.7,29.86,WNW,302,13.0,17.0,36,0.00,,---,0.00,VWS V14.01,2013-09-26 22:01:00,
2013-09-26 15:06:00,60.5,33.4,29.85,WNW,302,15.0,19.0,36,0.00,,---,0.00,VWS V14.01,2013-09-26 22:06:00,
2013-09-26 15:11:00,60.5,34.1,29.85,WNW,295,10.0,19.0,37,0.00,,---,0.00,VWS V14.01,2013-09-26 22:11:00,
2013-09-26 15:16:00,60.6,33.5,29.86,West,277,16.0,20.0,36,0.00,,---,0.00,VWS V14.01,2013-09-26 22:16:00,
2013-09-26 15:21:00,60.4,33.3,29.86,NW,308,14.0,29.0,36,0.00,,---,0.00,VWS V14.01,2013-09-26 22:21:00,
2013-09-26 15:26:00,60.4,34.0,29.86,WNW,302,11.0,29.0,37,0.00,,---,0.00,VWS V14.01,2013-09-26 22:26:00,
2013-09-26 15:30:00,60.3,33.9,29.86,NW,304,10.0,29.0,37,0.00,,---,0.00,VWS V14.01,2013-09-26 22:30:00,
2013-09-26 15:31:00,60.4,34.0,29.86,NW,312,10.0,18.0,37,0.00,,---,0.00,VWS V14.01,2013-09-26 22:31:00,
2013-09-26 15:36:00,60.4,33.3,29.85,WNW,302,13.0,22.0,36,0.00,,---,0.00,VWS V14.01,2013-09-26 22:36:00,
2013-09-26 15:41:00,60.2,33.8,29.85,NNW,338,16.0,22.0,37,0.00,,---,0.00,VWS V14.01,2013-09-26 22:41:00,
2013-09-26 15:46:00,60.1,33.1,29.86,NW,308,13.0,22.0,36,0.00,,---,0.00,VWS V14.01,2013-09-26 22:46:00,
2013-09-26 15:51:00,59.9,34.2,29.86,NW,308,11.0,24.0,38,0.00,,---,0.00,VWS V14.01,2013-09-26 22:51:00,
2013-09-26 15:56:00,60.1,34.4,29.86,WNW,297,15.0,24.0,38,0.00,,---,0.00,VWS V14.01,2013-09-26 22:56:00,
2013-09-26 16:00:00,60.0,34.3,29.86,WSW,257,10.0,24.0,38,0.00,,---,0.00,VWS V14.01,2013-09-26 23:00:00,
2013-09-26 16:01:00,59.9,33.6,29.86,WNW,294,15.0,24.0,37,0.00,,---,0.00,VWS V14.01,2013-09-26 23:01:00,
2013-09-26 16:06:00,60.0,33.7,29.86,WNW,297,15.0,24.0,37,0.00,,---,0.00,VWS V14.01,2013-09-26 23:06:00,
2013-09-26 16:10:00,60.1,33.8,29.86,North,355,12.0,24.0,37,0.00,,---,0.00,VWS V14.01,2013-09-26 23:10:00,
2013-09-26 16:15:00,60.1,33.8,29.86,NW,318,14.0,24.0,37,0.00,,---,0.00,VWS V14.01,2013-09-26 23:15:00,
2013-09-26 16:20:00,60.0,33.7,29.86,NW,307,14.0,24.0,37,0.00,,---,0.00,VWS V14.01,2013-09-26 23:20:00,
2013-09-26 16:25:00,59.8,33.5,29.86,NW,325,17.0,27.0,37,0.00,,---,0.00,VWS V14.01,2013-09-26 23:25:00,
2013-09-26 16:30:00,59.9,34.2,29.86,NW,318,15.0,22.0,38,0.00,,---,0.00,VWS V14.01,2013-09-26 23:30:00,
2013-09-26 16:35:00,59.8,34.2,29.86,WNW,287,7.0,22.0,38,0.00,,---,0.00,VWS V14.01,2013-09-26 23:35:00,
2013-09-26 16:40:00,60.0,33.7,29.87,NW,322,19.0,23.0,37,0.00,,---,0.00,VWS V14.01,2013-09-26 23:40:00,
2013-09-26 16:45:00,59.8,32.8,29.86,NW,325,14.0,23.0,36,0.00,,---,0.00,VWS V14.01,2013-09-26 23:45:00,
2013-09-26 16:50:00,59.7,33.4,29.87,NW,322,20.0,23.0,37,0.00,,---,0.00,VWS V14.01,2013-09-26 23:50:00,
2013-09-26 16:55:00,59.5,33.2,29.86,West,263,9.0,23.0,37,0.00,,---,0.00,VWS V14.01,2013-09-26 23:55:00,
2013-09-26 17:00:00,59.4,33.1,29.87,WNW,299,16.0,19.0,37,0.00,,---,0.00,VWS V14.01,2013-09-27 00:00:00,
2013-09-26 17:05:00,59.3,33.0,29.86,West,278,10.0,20.0,37,0.00,,---,0.00,VWS V14.01,2013-09-27 00:05:00,
2013-09-26 17:11:00,59.2,33.0,29.87,NW,322,13.0,20.0,37,0.00,,---,0.00,VWS V14.01,2013-09-27 00:11:00,
2013-09-26 17:16:00,59.1,33.5,29.86,NW,316,15.0,20.0,38,0.00,,---,0.00,VWS V14.01,2013-09-27 00:16:00,
2013-09-26 17:21:00,59.3,32.4,29.86,WNW,302,15.0,21.0,36,0.00,,---,0.00,VWS V14.01,2013-09-27 00:21:00,
2013-09-26 17:26:00,59.1,34.2,29.86,WNW,287,14.0,21.0,39,0.00,,---,0.00,VWS V14.01,2013-09-27 00:26:00,
2013-09-26 17:30:00,59.0,33.5,29.86,WNW,290,16.0,21.0,38,0.00,,---,0.00,VWS V14.01,2013-09-27 00:30:00,
2013-09-26 17:31:00,58.9,33.4,29.86,NW,305,20.0,20.0,38,0.00,,---,0.00,VWS V14.01,2013-09-27 00:31:00,
2013-09-26 17:36:00,58.9,34.0,29.86,NW,312,11.0,21.0,39,0.00,,---,0.00,VWS V14.01,2013-09-27 00:36:00,
2013-09-26 17:41:00,58.9,33.4,29.86,WNW,293,14.0,21.0,38,0.00,,---,0.00,VWS V14.01,2013-09-27 00:41:00,
2013-09-26 17:46:00,58.8,32.6,29.86,NW,325,18.0,21.0,37,0.00,,---,0.00,VWS V14.01,2013-09-27 00:46:00,
2013-09-26 17:51:00,58.6,33.1,29.86,NW,326,15.0,23.0,38,0.00,,---,0.00,VWS V14.01,2013-09-27 00:51:00,
2013-09-26 17:56:00,58.4,32.9,29.86,WNW,295,13.0,23.0,38,0.00,,---,0.00,VWS V14.01,2013-09-27 00:56:00,
2013-09-26 18:00:00,58.4,32.9,29.86,NW,308,13.0,23.0,38,0.00,,---,0.00,VWS V14.01,2013-09-27 01:00:00,
2013-09-26 18:01:00,58.3,32.8,29.86,NW,315,10.0,21.0,38,0.00,,---,0.00,VWS V14.01,2013-09-27 01:01:00,
2013-09-26 18:06:00,58.1,33.3,29.86,NW,316,14.0,21.0,39,0.00,,---,0.00,VWS V14.01,2013-09-27 01:06:00,
2013-09-26 18:10:00,57.9,33.1,29.85,WNW,301,13.0,21.0,39,0.00,,---,0.00,VWS V14.01,2013-09-27 01:10:00,
2013-09-26 18:15:00,57.6,33.5,29.86,WNW,293,13.0,23.0,40,0.00,,---,0.00,VWS V14.01,2013-09-27 01:15:00,
2013-09-26 18:20:00,57.4,33.3,29.86,NNW,335,16.0,23.0,40,0.00,,---,0.00,VWS V14.01,2013-09-27 01:20:00,
2013-09-26 18:25:00,57.1,33.0,29.86,NW,312,13.0,23.0,40,0.00,,---,0.00,VWS V14.01,2013-09-27 01:25:00,
2013-09-26 18:30:00,56.9,33.5,29.86,NW,316,11.0,21.0,41,0.00,,---,0.00,VWS V14.01,2013-09-27 01:30:00,
2013-09-26 18:35:00,56.5,33.7,29.86,NW,308,8.0,21.0,42,0.00,,---,0.00,VWS V14.01,2013-09-27 01:35:00,
2013-09-26 18:40:00,56.3,33.5,29.86,WNW,300,11.0,22.0,42,0.00,,---,0.00,VWS V14.01,2013-09-27 01:40:00,
2013-09-26 18:45:00,56.1,33.3,29.87,NW,319,8.0,22.0,42,0.00,,---,0.00,VWS V14.01,2013-09-27 01:45:00,
2013-09-26 18:50:00,55.8,33.7,29.87,NW,326,13.0,22.0,43,0.00,,---,0.00,VWS V14.01,2013-09-27 01:50:00,
2013-09-26 18:55:00,55.7,33.6,29.87,WNW,302,8.0,22.0,43,0.00,,---,0.00,VWS V14.01,2013-09-27 01:55:00,
2013-09-26 19:00:00,55.3,33.8,29.87,NW,308,7.0,15.0,44,0.00,,---,0.00,VWS V14.01,2013-09-27 02:00:00,
2013-09-26 19:05:00,55.3,33.8,29.87,NW,315,10.0,21.0,44,0.00,,---,0.00,VWS V14.01,2013-09-27 02:05:00,
2013-09-26 19:10:00,55.2,33.7,29.87,WNW,295,9.0,21.0,44,0.00,,---,0.00,VWS V14.01,2013-09-27 02:10:00,
2013-09-26 19:15:00,55.1,33.6,29.88,NW,319,9.0,21.0,44,0.00,,---,0.00,VWS V14.01,2013-09-27 02:15:00,
2013-09-26 19:20:00,54.8,33.3,29.88,WNW,291,10.0,21.0,44,0.00,,---,0.00,VWS V14.01,2013-09-27 02:20:00,
2013-09-26 19:25:00,54.7,33.2,29.88,NW,309,8.0,21.0,44,0.00,,---,0.00,VWS V14.01,2013-09-27 02:25:00,
2013-09-26 19:30:00,54.5,33.6,29.88,NW,308,8.0,15.0,45,0.00,,---,0.00,VWS V14.01,2013-09-27 02:30:00,
2013-09-26 19:35:00,54.5,33.6,29.88,WNW,293,7.0,16.0,45,0.00,,---,0.00,VWS V14.01,2013-09-27 02:35:00,
2013-09-26 19:40:00,54.5,33.6,29.88,NW,314,11.0,16.0,45,0.00,,---,0.00,VWS V14.01,2013-09-27 02:40:00,
2013-09-26 19:45:00,54.5,33.6,29.88,NW,319,10.0,16.0,45,0.00,,---,0.00,VWS V14.01,2013-09-27 02:45:00,
2013-09-26 19:50:00,54.4,33.5,29.89,NW,305,6.0,16.0,45,0.00,,---,0.00,VWS V14.01,2013-09-27 02:50:00,
2013-09-26 19:55:00,54.1,33.2,29.89,West,267,6.0,16.0,45,0.00,,---,0.00,VWS V14.01,2013-09-27 02:55:00,
2013-09-26 20:00:00,54.0,33.7,29.89,WNW,302,5.0,12.0,46,0.00,,---,0.00,VWS V14.01,2013-09-27 03:00:00,
2013-09-26 20:05:00,53.9,33.6,29.90,West,273,3.0,12.0,46,0.00,,---,0.00,VWS V14.01,2013-09-27 03:05:00,
2013-09-26 20:10:00,53.7,33.4,29.90,WNW,302,4.0,12.0,46,0.00,,---,0.00,VWS V14.01,2013-09-27 03:10:00,
2013-09-26 20:15:00,53.6,33.3,29.90,West,278,3.0,12.0,46,0.00,,---,0.00,VWS V14.01,2013-09-27 03:15:00,
2013-09-26 20:20:00,53.5,33.2,29.91,West,270,3.0,12.0,46,0.00,,---,0.00,VWS V14.01,2013-09-27 03:20:00,
2013-09-26 20:25:00,53.5,32.7,29.91,South,184,1.0,12.0,45,0.00,,---,0.00,VWS V14.01,2013-09-27 03:25:00,
2013-09-26 20:30:00,52.9,32.7,29.92,SSW,198,2.0,3.0,46,0.00,,---,0.00,VWS V14.01,2013-09-27 03:30:00,
2013-09-26 20:35:00,52.0,32.4,29.92,SSW,200,3.0,6.0,47,0.00,,---,0.00,VWS V14.01,2013-09-27 03:35:00,
2013-09-26 20:40:00,51.6,32.6,29.93,SE,134,0.0,6.0,48,0.00,,---,0.00,VWS V14.01,2013-09-27 03:40:00,
2013-09-26 20:45:00,51.7,32.7,29.93,West,279,3.0,6.0,48,0.00,,---,0.00,VWS V14.01,2013-09-27 03:45:00,
2013-09-26 20:51:00,52.1,32.5,29.92,SSW,203,7.0,12.0,47,0.00,,---,0.00,VWS V14.01,2013-09-27 03:51:00,
2013-09-26 20:56:00,53.0,32.8,29.93,SSW,203,9.0,12.0,46,0.00,,---,0.00,VWS V14.01,2013-09-27 03:56:00,
2013-09-26 21:00:00,53.3,33.1,29.93,SSW,200,5.0,12.0,46,0.00,,---,0.00,VWS V14.01,2013-09-27 04:00:00,
2013-09-26 21:01:00,53.4,33.2,29.93,SW,217,9.0,15.0,46,0.00,,---,0.00,VWS V14.01,2013-09-27 04:01:00,
2013-09-26 21:06:00,53.8,33.0,29.93,SW,217,9.0,15.0,45,0.00,,---,0.00,VWS V14.01,2013-09-27 04:06:00,
2013-09-26 21:11:00,54.1,32.7,29.94,SW,221,2.0,17.0,44,0.00,,---,0.00,VWS V14.01,2013-09-27 04:11:00,
2013-09-26 21:16:00,54.5,32.5,29.94,SSW,207,6.0,17.0,43,0.00,,---,0.00,VWS V14.01,2013-09-27 04:16:00,
2013-09-26 21:21:00,54.4,32.4,29.95,SSE,162,7.0,17.0,43,0.00,,---,0.00,VWS V14.01,2013-09-27 04:21:00,
2013-09-26 21:26:00,54.7,32.1,29.94,SSW,193,7.0,17.0,42,0.00,,---,0.00,VWS V14.01,2013-09-27 04:26:00,
2013-09-26 21:30:00,54.7,32.1,29.94,West,279,5.0,17.0,42,0.00,,---,0.00,VWS V14.01,2013-09-27 04:30:00,
2013-09-26 21:31:00,54.7,32.1,29.94,SSW,197,6.0,19.0,42,0.00,,---,0.00,VWS V14.01,2013-09-27 04:31:00,
2013-09-26 21:36:00,54.7,32.1,29.95,SSW,201,6.0,19.0,42,0.00,,---,0.00,VWS V14.01,2013-09-27 04:36:00,
2013-09-26 21:41:00,54.7,31.5,29.95,South,187,4.0,19.0,41,0.00,,---,0.00,VWS V14.01,2013-09-27 04:41:00,
2013-09-26 21:46:00,55.0,32.3,29.96,SSW,192,6.0,19.0,42,0.00,,---,0.00,VWS V14.01,2013-09-27 04:46:00,
2013-09-26 21:51:00,55.1,31.8,29.95,SSW,193,1.0,19.0,41,0.00,,---,0.00,VWS V14.01,2013-09-27 04:51:00,
2013-09-26 21:56:00,55.1,32.4,29.96,West,280,3.0,19.0,42,0.00,,---,0.00,VWS V14.01,2013-09-27 04:56:00,
2013-09-26 22:00:00,55.1,32.4,29.96,NE,56,8.0,19.0,42,0.00,,---,0.00,VWS V14.01,2013-09-27 05:00:00,
2013-09-26 22:01:00,55.4,32.1,29.96,WSW,256,4.0,17.0,41,0.00,,---,0.00,VWS V14.01,2013-09-27 05:01:00,
2013-09-26 22:06:00,55.3,32.6,29.96,East,90,1.0,17.0,42,0.00,,---,0.00,VWS V14.01,2013-09-27 05:06:00,
2013-09-26 22:11:00,55.4,32.7,29.96,WSW,252,3.0,17.0,42,0.00,,---,0.00,VWS V14.01,2013-09-27 05:11:00,
2013-09-26 22:16:00,55.2,32.5,29.97,NNE,22,15.0,17.0,42,0.00,,---,0.00,VWS V14.01,2013-09-27 05:16:00,
2013-09-26 22:21:00,55.3,32.0,29.96,North,355,8.0,22.0,41,0.00,,---,0.00,VWS V14.01,2013-09-27 05:21:00,
2013-09-26 22:26:00,55.3,32.6,29.96,WNW,283,7.0,22.0,42,0.00,,---,0.00,VWS V14.01,2013-09-27 05:26:00,
2013-09-26 22:30:00,55.2,31.9,29.96,NW,311,9.0,22.0,41,0.00,,---,0.00,VWS V14.01,2013-09-27 05:30:00,
2013-09-26 22:31:00,55.3,32.6,29.96,WNW,302,8.0,17.0,42,0.00,,---,0.00,VWS V14.01,2013-09-27 05:31:00,
2013-09-26 22:36:00,55.2,31.9,29.97,WNW,288,10.0,17.0,41,0.00,,---,0.00,VWS V14.01,2013-09-27 05:36:00,
2013-09-26 22:41:00,55.2,31.9,29.96,NW,308,10.0,17.0,41,0.00,,---,0.00,VWS V14.01,2013-09-27 05:41:00,
2013-09-26 22:46:00,55.3,31.4,29.96,NW,308,8.0,17.0,40,0.00,,---,0.00,VWS V14.01,2013-09-27 05:46:00,
2013-09-26 22:51:00,55.3,31.4,29.95,WNW,302,10.0,17.0,40,0.00,,---,0.00,VWS V14.01,2013-09-27 05:51:00,
2013-09-26 22:56:00,55.2,31.9,29.95,West,281,12.0,17.0,41,0.00,,---,0.00,VWS V14.01,2013-09-27 05:56:00,
2013-09-26 23:00:00,55.1,32.4,29.95,WNW,297,11.0,17.0,42,0.00,,---,0.00,VWS V14.01,2013-09-27 06:00:00,
2013-09-26 23:01:00,54.9,31.7,29.95,NNW,328,17.0,17.0,41,0.00,,---,0.00,VWS V14.01,2013-09-27 06:01:00,
2013-09-26 23:06:00,55.1,31.8,29.95,WSW,257,10.0,19.0,41,0.00,,---,0.00,VWS V14.01,2013-09-27 06:06:00,
2013-09-26 23:11:00,55.1,31.8,29.94,NW,305,6.0,20.0,41,0.00,,---,0.00,VWS V14.01,2013-09-27 06:11:00,
2013-09-26 23:16:00,55.1,32.4,29.95,West,277,5.0,20.0,42,0.00,,---,0.00,VWS V14.01,2013-09-27 06:16:00,
2013-09-26 23:21:00,55.0,32.3,29.95,West,274,6.0,20.0,42,0.00,,---,0.00,VWS V14.01,2013-09-27 06:21:00,
2013-09-26 23:26:00,54.9,32.8,29.94,WNW,294,11.0,20.0,43,0.00,,---,0.00,VWS V14.01,2013-09-27 06:26:00,
2013-09-26 23:30:00,54.8,32.8,29.95,NW,312,6.0,20.0,43,0.00,,---,0.00,VWS V14.01,2013-09-27 06:30:00,
2013-09-26 23:31:00,54.5,33.0,29.95,NNW,328,12.0,17.0,44,0.00,,---,0.00,VWS V14.01,2013-09-27 06:31:00,
2013-09-26 23:36:00,54.2,32.8,29.94,WNW,291,11.0,17.0,44,0.00,,---,0.00,VWS V14.01,2013-09-27 06:36:00,
2013-09-26 23:41:00,54.3,32.9,29.94,WNW,295,6.0,17.0,44,0.00,,---,0.00,VWS V14.01,2013-09-27 06:41:00,
2013-09-26 23:46:00,54.2,32.8,29.94,WSW,254,5.0,17.0,44,0.00,,---,0.00,VWS V14.01,2013-09-27 06:46:00,
2013-09-26 23:51:00,54.1,32.7,29.94,SW,224,6.0,17.0,44,0.00,,---,0.00,VWS V14.01,2013-09-27 06:51:00,
2013-09-26 23:56:00,54.0,33.2,29.94,West,277,7.0,17.0,45,0.00,,---,0.00,VWS V14.01,2013-09-27 06:56:00,